Location: Tamazert
(32.6352°N, 5.2072°W)
Time: 16:30:30
(UTC+00:00)

Vanguard 3 - Pass Details

Date: 10 October 2022
Orbit: 509 x 3255 km, 33.3° (Epoch: 08 December)

Event Time Altitude Azimuth Distance (km) Brightness Sun altitude
Rises 11:37:36 0° 277° (W) 3,026 10.0 50.0°
Reaches altitude 10° 11:39:39 10° 269° (W) 2,300 9.5 50.1°
Maximum altitude 11:44:40 41° 200° (SSW) 1,463 10.1 50.2°
Drops below altitude 10° 11:52:57 10° 134° (SE) 3,800 11.2 50.5°
Sets 11:57:21 0° 128° (SE) 5,279 11.7 50.5°
